Location: Unspecified
(41.5000°N, 0.0000°E)
Time: 14:11:36
(UTC+00:00)

deb Explorer IX - Pass Details

Date: 27 June 2019
Orbit: 539 x 1112 km, 38.8° (Epoch: 17 July)

Event Time Altitude Azimuth Distance (km) Brightness Sun altitude
Rises 11:28:14 0° 232° (SW) 3,487 ? 70.4°
Reaches altitude 10° 11:30:47 10° 225° (SW) 2,633 ? 70.6°
Maximum altitude 11:36:50 44° 156° (SSE) 1,380 ? 71.0°
Drops below altitude 10° 11:43:34 10° 87° (E) 2,931 ? 71.4°
Sets 11:46:32 0° 81° (E) 3,920 ? 71.5°
